Time,TemperatureF,DewpointF,PressureIn,WindDirection,WindDirectionDegrees,WindSpeedMPH,WindSpeedGustMPH,Humidity,HourlyPrecipIn,Conditions,Clouds,dailyrainin,SoftwareType,DateUTC
2013-07-09 00:01:00,72.0,70.0,30.14,SSE,157,0.0,-999.0,92,-99.99,,,-99.99,,2013-07-09 04:01:00,
2013-07-09 00:11:00,72.0,70.0,30.13,SSE,157,0.0,-999.0,92,-99.99,,,-99.99,,2013-07-09 04:11:00,
2013-07-09 00:22:00,72.0,70.0,30.14,SSE,157,0.0,-999.0,92,-99.99,,,-99.99,,2013-07-09 04:22:00,
2013-07-09 00:34:00,71.0,69.0,30.13,SSE,157,0.0,-999.0,93,-99.99,,,-99.99,,2013-07-09 04:34:00,
2013-07-09 00:42:00,71.0,69.0,30.13,SSE,157,0.0,-999.0,94,-99.99,,,-99.99,,2013-07-09 04:42:00,
2013-07-09 00:53:00,71.0,69.0,30.13,SSE,157,0.0,-999.0,94,-99.99,,,-99.99,,2013-07-09 04:53:00,
2013-07-09 01:02:00,71.0,69.0,30.13,SSE,157,0.0,-999.0,94,-99.99,,,-99.99,,2013-07-09 05:02:00,
2013-07-09 01:11:00,71.0,69.0,30.13,SSE,157,0.0,-999.0,94,-99.99,,,-99.99,,2013-07-09 05:11:00,
2013-07-09 01:22:00,71.0,69.0,30.13,SSE,157,0.0,-999.0,94,-99.99,,,-99.99,,2013-07-09 05:22:00,
2013-07-09 01:33:00,71.0,69.0,30.12,SSE,157,0.0,-999.0,94,-99.99,,,-99.99,,2013-07-09 05:33:00,
2013-07-09 01:42:00,71.0,69.0,30.12,SSE,157,0.0,-999.0,95,-99.99,,,-99.99,,2013-07-09 05:42:00,
2013-07-09 01:52:00,71.0,69.0,30.12,SSE,157,0.0,-999.0,95,-99.99,,,-99.99,,2013-07-09 05:52:00,
2013-07-09 02:01:00,71.0,69.0,30.12,SSE,157,0.0,-999.0,95,-99.99,,,-99.99,,2013-07-09 06:01:00,
2013-07-09 02:11:00,71.0,69.0,30.12,SSE,157,0.0,-999.0,95,-99.99,,,-99.99,,2013-07-09 06:11:00,
2013-07-09 02:22:00,71.0,69.0,30.12,SSE,157,0.0,-999.0,95,-99.99,,,-99.99,,2013-07-09 06:22:00,
2013-07-09 02:33:00,71.0,69.0,30.12,SSE,157,0.0,-999.0,95,-99.99,,,-99.99,,2013-07-09 06:33:00,
2013-07-09 02:43:00,71.0,69.0,30.11,SSE,157,0.0,-999.0,95,-99.99,,,-99.99,,2013-07-09 06:43:00,
2013-07-09 02:53:00,71.0,69.0,30.11,SSE,157,0.0,-999.0,95,-99.99,,,-99.99,,2013-07-09 06:53:00,
2013-07-09 03:02:00,70.0,68.0,30.11,SSE,157,0.0,-999.0,95,-99.99,,,-99.99,,2013-07-09 07:02:00,
2013-07-09 03:12:00,70.0,68.0,30.11,SSE,157,0.0,-999.0,95,-99.99,,,-99.99,,2013-07-09 07:12:00,
2013-07-09 03:22:00,70.0,68.0,30.11,SSE,157,0.0,-999.0,95,-99.99,,,-99.99,,2013-07-09 07:22:00,
2013-07-09 03:34:00,70.0,69.0,30.11,SSE,157,0.0,-999.0,96,-99.99,,,-99.99,,2013-07-09 07:34:00,
2013-07-09 03:43:00,70.0,69.0,30.11,SSE,157,0.0,-999.0,96,-99.99,,,-99.99,,2013-07-09 07:43:00,
2013-07-09 03:53:00,70.0,69.0,30.11,SSE,157,0.0,-999.0,96,-99.99,,,-99.99,,2013-07-09 07:53:00,
2013-07-09 04:01:00,70.0,69.0,30.11,SSE,157,0.0,-999.0,96,-99.99,,,-99.99,,2013-07-09 08:01:00,
2013-07-09 04:22:00,69.0,68.0,30.10,SSE,157,0.0,-999.0,96,-99.99,,,-99.99,,2013-07-09 08:22:00,
2013-07-09 04:33:00,69.0,68.0,30.10,SSE,157,0.0,-999.0,97,-99.99,,,-99.99,,2013-07-09 08:33:00,
2013-07-09 04:43:00,70.0,69.0,30.11,SSE,157,0.0,-999.0,97,-99.99,,,-99.99,,2013-07-09 08:43:00,
2013-07-09 04:52:00,70.0,69.0,30.11,SSE,157,0.0,-999.0,97,-99.99,,,-99.99,,2013-07-09 08:52:00,
2013-07-09 05:02:00,70.0,69.0,30.11,SSE,157,0.0,-999.0,97,-99.99,,,-99.99,,2013-07-09 09:02:00,
2013-07-09 05:12:00,70.0,69.0,30.11,SSE,157,0.0,-999.0,97,-99.99,,,-99.99,,2013-07-09 09:12:00,
2013-07-09 05:22:00,70.0,69.0,30.11,SSE,157,0.0,-999.0,97,-99.99,,,-99.99,,2013-07-09 09:22:00,
2013-07-09 05:34:00,70.0,69.0,30.11,SSE,157,0.0,-999.0,96,-99.99,,,-99.99,,2013-07-09 09:34:00,
2013-07-09 05:42:00,70.0,69.0,30.11,SSE,157,0.0,-999.0,96,-99.99,,,-99.99,,2013-07-09 09:42:00,
2013-07-09 05:53:00,70.0,69.0,30.11,SSE,157,0.0,-999.0,96,-99.99,,,-99.99,,2013-07-09 09:53:00,
2013-07-09 06:11:00,70.0,69.0,30.10,SSE,157,0.0,-999.0,96,-99.99,,,-99.99,,2013-07-09 10:11:00,
2013-07-09 06:22:00,69.0,68.0,30.11,SSE,157,0.0,-999.0,96,-99.99,,,-99.99,,2013-07-09 10:22:00,
2013-07-09 06:33:00,69.0,68.0,30.11,SSE,157,0.0,-999.0,96,-99.99,,,-99.99,,2013-07-09 10:33:00,
2013-07-09 06:42:00,69.0,68.0,30.10,SSE,157,0.0,-999.0,96,-99.99,,,-99.99,,2013-07-09 10:42:00,
2013-07-09 06:52:00,69.0,68.0,30.10,SSE,157,0.0,-999.0,96,-99.99,,,-99.99,,2013-07-09 10:52:00,
2013-07-09 07:22:00,69.0,68.0,30.10,SSE,157,0.0,-999.0,96,-99.99,,,-99.99,,2013-07-09 11:22:00,
2013-07-09 07:34:00,69.0,68.0,30.10,SSE,157,0.0,-999.0,96,-99.99,,,-99.99,,2013-07-09 11:34:00,
2013-07-09 07:53:00,70.0,69.0,30.10,SSE,157,0.0,-999.0,96,-99.99,,,-99.99,,2013-07-09 11:53:00,
2013-07-09 08:02:00,70.0,69.0,30.10,SSE,157,0.0,-999.0,96,-99.99,,,-99.99,,2013-07-09 12:02:00,
2013-07-09 08:22:00,70.0,69.0,30.11,SSE,157,0.0,-999.0,96,-99.99,,,-99.99,,2013-07-09 12:22:00,
2013-07-09 08:33:00,70.0,69.0,30.11,SSE,157,0.0,-999.0,96,-99.99,,,-99.99,,2013-07-09 12:33:00,
2013-07-09 08:52:00,70.0,69.0,30.11,SSE,157,0.0,-999.0,96,-99.99,,,-99.99,,2013-07-09 12:52:00,
2013-07-09 09:22:00,70.0,69.0,30.11,SSE,157,0.0,-999.0,97,-99.99,,,-99.99,,2013-07-09 13:22:00,
2013-07-09 09:33:00,71.0,70.0,30.11,SSE,157,0.0,-999.0,96,-99.99,,,-99.99,,2013-07-09 13:33:00,
2013-07-09 09:43:00,71.0,69.0,30.12,SSE,157,0.0,-999.0,95,-99.99,,,-99.99,,2013-07-09 13:43:00,
2013-07-09 09:53:00,71.0,69.0,30.12,SSE,157,0.0,-999.0,95,-99.99,,,-99.99,,2013-07-09 13:53:00,
2013-07-09 10:22:00,72.0,70.0,30.12,SSE,157,0.0,-999.0,94,-99.99,,,-99.99,,2013-07-09 14:22:00,
2013-07-09 10:34:00,73.0,71.0,30.12,SSE,157,0.0,-999.0,92,-99.99,,,-99.99,,2013-07-09 14:34:00,
2013-07-09 10:43:00,74.0,72.0,30.12,SSE,159,0.0,-999.0,92,-99.99,,,-99.99,,2013-07-09 14:43:00,
2013-07-09 10:53:00,74.0,72.0,30.12,SSE,159,0.0,-999.0,92,-99.99,,,-99.99,,2013-07-09 14:53:00,
2013-07-09 11:12:00,74.0,71.0,30.13,SSE,159,0.0,-999.0,89,-99.99,,,-99.99,,2013-07-09 15:12:00,
2013-07-09 11:22:00,76.0,71.0,30.13,South,191,0.0,-999.0,85,-99.99,,,-99.99,,2013-07-09 15:22:00,
2013-07-09 11:43:00,77.0,72.0,30.13,SSE,165,0.0,-999.0,84,-99.99,,,-99.99,,2013-07-09 15:43:00,
2013-07-09 11:52:00,78.0,70.0,30.14,SSE,160,0.0,-999.0,77,-99.99,,,-99.99,,2013-07-09 15:52:00,
2013-07-09 12:02:00,79.0,72.0,30.14,SE,132,0.0,-999.0,80,-99.99,,,-99.99,,2013-07-09 16:02:00,
2013-07-09 12:11:00,79.0,72.0,30.14,SE,132,0.0,-999.0,80,-99.99,,,-99.99,,2013-07-09 16:11:00,
2013-07-09 12:22:00,80.0,72.0,30.13,SSE,167,0.0,-999.0,77,-99.99,,,-99.99,,2013-07-09 16:22:00,
2013-07-09 12:43:00,80.0,72.0,30.13,SSE,167,0.0,-999.0,76,-99.99,,,-99.99,,2013-07-09 16:43:00,
2013-07-09 12:52:00,80.0,72.0,30.13,SSE,167,0.0,-999.0,76,-99.99,,,-99.99,,2013-07-09 16:52:00,
2013-07-09 13:11:00,82.0,73.0,30.13,South,186,0.0,-999.0,75,-99.99,,,-99.99,,2013-07-09 17:11:00,
2013-07-09 13:22:00,83.0,73.0,30.13,South,186,0.0,-999.0,73,-99.99,,,-99.99,,2013-07-09 17:22:00,
2013-07-09 13:45:00,82.0,73.0,30.12,South,186,0.0,-999.0,74,-99.99,,,-99.99,,2013-07-09 17:45:00,
2013-07-09 13:53:00,83.0,72.0,30.11,South,186,0.0,-999.0,70,-99.99,,,-99.99,,2013-07-09 17:53:00,
2013-07-09 14:02:00,83.0,73.0,30.11,SSW,192,0.0,-999.0,72,-99.99,,,-99.99,,2013-07-09 18:02:00,
2013-07-09 14:22:00,82.0,72.0,30.10,SSE,167,0.0,-999.0,73,-99.99,,,-99.99,,2013-07-09 18:22:00,
2013-07-09 14:32:00,83.0,72.0,30.10,South,169,0.0,-999.0,70,-99.99,,,-99.99,,2013-07-09 18:32:00,
2013-07-09 14:43:00,83.0,70.0,30.09,SSW,194,0.0,-999.0,64,-99.99,,,-99.99,,2013-07-09 18:43:00,
2013-07-09 14:52:00,83.0,70.0,30.09,SSW,194,0.0,-999.0,64,-99.99,,,-99.99,,2013-07-09 18:52:00,
2013-07-09 15:11:00,84.0,70.0,30.09,South,175,0.0,-999.0,62,-99.99,,,-99.99,,2013-07-09 19:11:00,
2013-07-09 15:22:00,85.0,73.0,30.08,SSW,208,0.0,-999.0,67,-99.99,,,-99.99,,2013-07-09 19:22:00,
2013-07-09 15:33:00,86.0,74.0,30.08,SSW,192,0.0,-999.0,67,-99.99,,,-99.99,,2013-07-09 19:33:00,
2013-07-09 15:52:00,86.0,72.0,30.07,South,179,0.0,-999.0,64,-99.99,,,-99.99,,2013-07-09 19:52:00,
2013-07-09 16:02:00,86.0,72.0,30.07,South,179,0.0,-999.0,64,-99.99,,,-99.99,,2013-07-09 20:02:00,
2013-07-09 16:11:00,86.0,72.0,30.07,South,179,0.0,-999.0,64,-99.99,,,-99.99,,2013-07-09 20:11:00,
2013-07-09 16:22:00,86.0,72.0,30.06,SSE,167,0.0,-999.0,63,-99.99,,,-99.99,,2013-07-09 20:22:00,
2013-07-09 16:43:00,86.0,73.0,30.06,SSE,167,0.0,-999.0,66,-99.99,,,-99.99,,2013-07-09 20:43:00,
2013-07-09 16:52:00,86.0,73.0,30.06,SSE,167,0.0,-999.0,66,-99.99,,,-99.99,,2013-07-09 20:52:00,
2013-07-09 17:22:00,85.0,70.0,30.04,South,173,0.0,-999.0,62,-99.99,,,-99.99,,2013-07-09 21:22:00,
2013-07-09 17:32:00,86.0,70.0,30.04,South,173,0.0,-999.0,59,-99.99,,,-99.99,,2013-07-09 21:32:00,
2013-07-09 17:52:00,86.0,74.0,30.03,SSE,164,0.0,-999.0,67,-99.99,,,-99.99,,2013-07-09 21:52:00,
2013-07-09 18:22:00,85.0,73.0,30.03,South,169,0.0,-999.0,67,-99.99,,,-99.99,,2013-07-09 22:22:00,
2013-07-09 18:33:00,86.0,72.0,30.04,SSE,165,0.0,-999.0,64,-99.99,,,-99.99,,2013-07-09 22:33:00,
2013-07-09 18:42:00,86.0,71.0,30.04,SSE,165,0.0,-999.0,62,-99.99,,,-99.99,,2013-07-09 22:42:00,
2013-07-09 18:53:00,86.0,71.0,30.04,SSE,165,0.0,-999.0,62,-99.99,,,-99.99,,2013-07-09 22:53:00,
2013-07-09 19:11:00,85.0,71.0,30.04,SSE,165,0.0,-999.0,63,-99.99,,,-99.99,,2013-07-09 23:11:00,
2013-07-09 19:22:00,81.0,71.0,30.04,SSE,165,0.0,-999.0,72,-99.99,,,-99.99,,2013-07-09 23:22:00,
2013-07-09 19:33:00,80.0,72.0,30.05,SSE,165,0.0,-999.0,76,-99.99,,,-99.99,,2013-07-09 23:33:00,
2013-07-09 19:43:00,79.0,72.0,30.05,SSE,165,0.0,-999.0,79,-99.99,,,-99.99,,2013-07-09 23:43:00,
2013-07-09 19:53:00,79.0,72.0,30.05,SSE,165,0.0,-999.0,79,-99.99,,,-99.99,,2013-07-09 23:53:00,
2013-07-09 20:01:00,79.0,73.0,30.05,SSE,165,0.0,-999.0,81,-99.99,,,-99.99,,2013-07-10 00:01:00,
2013-07-09 20:11:00,78.0,72.0,30.05,SSE,165,0.0,-999.0,82,-99.99,,,-99.99,,2013-07-10 00:11:00,
2013-07-09 20:22:00,78.0,72.0,30.05,SSE,165,0.0,-999.0,82,-99.99,,,-99.99,,2013-07-10 00:22:00,
2013-07-09 20:33:00,77.0,71.0,30.05,SSE,165,0.0,-999.0,82,-99.99,,,-99.99,,2013-07-10 00:33:00,
2013-07-09 20:42:00,77.0,72.0,30.05,SSE,165,0.0,-999.0,85,-99.99,,,-99.99,,2013-07-10 00:42:00,
2013-07-09 20:52:00,77.0,72.0,30.05,SSE,165,0.0,-999.0,85,-99.99,,,-99.99,,2013-07-10 00:52:00,
2013-07-09 21:01:00,76.0,71.0,30.05,SSE,165,0.0,-999.0,84,-99.99,,,-99.99,,2013-07-10 01:01:00,
2013-07-09 21:11:00,76.0,71.0,30.05,SSE,165,0.0,-999.0,84,-99.99,,,-99.99,,2013-07-10 01:11:00,
2013-07-09 21:22:00,76.0,71.0,30.05,SSE,165,0.0,-999.0,84,-99.99,,,-99.99,,2013-07-10 01:22:00,
2013-07-09 21:53:00,75.0,70.0,30.06,SSE,165,0.0,-999.0,85,-99.99,,,-99.99,,2013-07-10 01:53:00,
2013-07-09 22:02:00,76.0,71.0,30.06,WNW,293,0.0,-999.0,84,-99.99,,,-99.99,,2013-07-10 02:02:00,
2013-07-09 22:22:00,75.0,70.0,30.06,WNW,293,0.0,-999.0,85,-99.99,,,-99.99,,2013-07-10 02:22:00,
2013-07-09 22:34:00,75.0,70.0,30.07,WNW,293,0.0,-999.0,85,-99.99,,,-99.99,,2013-07-10 02:34:00,
2013-07-09 22:43:00,75.0,70.0,30.07,WNW,293,0.0,-999.0,85,-99.99,,,-99.99,,2013-07-10 02:43:00,
2013-07-09 23:01:00,74.0,69.0,30.07,WNW,293,0.0,-999.0,85,-99.99,,,-99.99,,2013-07-10 03:01:00,
2013-07-09 23:22:00,74.0,69.0,30.07,WNW,293,0.0,-999.0,85,-99.99,,,-99.99,,2013-07-10 03:22:00,
2013-07-09 23:32:00,74.0,70.0,30.08,WNW,293,0.0,-999.0,86,-99.99,,,-99.99,,2013-07-10 03:32:00,
2013-07-09 23:43:00,74.0,70.0,30.08,WNW,293,0.0,-999.0,87,-99.99,,,-99.99,,2013-07-10 03:43:00,
2013-07-09 23:52:00,74.0,70.0,30.08,WNW,293,0.0,-999.0,87,-99.99,,,-99.99,,2013-07-10 03:52:00,